Terminal Aerodrome Forecast
Issued by NWS Raleigh/Durham, NC

Home | Current Version | Previous Version | Text Only | Print | Product List | Glossary On
Versions: 1 2 3 4 5 6 7 8 9 10 11 12 13 14 15 16 17 18 19 20 21 22 23 24
000
FTUS42 KRAH 311345 AAB
TAFGSO
TAF AMD
KGSO 311345Z 3114/0112 02005KT P6SM BKN025
     FM311600 VRB04KT P6SM SCT035 BKN100
     FM312300 VRB04KT P6SM VCSH BKN050 BKN150
      TEMPO 0100/0104 5SM -SHRA BKN035 OVC080
     FM010400 01007KT 3SM -SHRA BKN007 OVC020=

USA.gov is the U.S. government's official web portal to all federal, state and local government web resources and services.